Regional Weather Roundup
Issued by NWS Upton, NY

Current Version | Previous Version | Graphics & Text | Print | Product List | Glossary Off
Versions: 1 2 3 4 5 6 7 8 9 10 11 12 13 14 15 16 17 18 19 20 21 22 23 24 25 26 27 28 29 30 31 32 33 34 35 36 37 38 39 40 41 42 43 44 45 46 47 48 49 50

000
ASUS41 KOKX 050105
RWROKX

REGIONAL WEATHER ROUNDUP
NATIONAL WEATHER SERVICE NEW YORK NY
800 PM EST WED MAR 04 2015

NOTE: "FAIR" INDICATES FEW OR NO CLOUDS BELOW 12,000 FEET WITH NO
SIGNIFICANT WEATHER AND/OR OBSTRUCTIONS TO VISIBILITY.

NYZ071-072-176-178-NJZ106-104-050200-
NEW YORK CITY METRO AREA


CITY           SKY/WX    TMP DP  RH WIND       PRES   REMARKS
CENTRAL PARK   CLOUDY    43  38  82 VRB5      29.89F HAZE
LAGUARDIA APRT CLOUDY    43  39  86 S10       29.87F
KENNEDY INTL   CLOUDY    40  37  89 SW9       29.89F FOG     WCI  34
NEWARK/LIBERTY CLOUDY    41  39  93 SW9       29.88F FOG
BRNX BOT. GARD   N/A     43  37  81 SW10      29.89R
TETERBORO      CLOUDY    41  37  86 SW6       29.87F FOG
$$

NYZ177-179-078>081-050200-
LONG ISLAND NEW YORK

CITY           SKY/WX    TMP DP  RH WIND       PRES   REMARKS
FARMINGDALE    CLOUDY    40  38  93 SW5       29.87F FOG
ISLIP          CLOUDY    38  36  92 SW7       29.85F FOG     WCI  33
SHIRLEY        CLOUDY    39  37  92 SW5       29.87F FOG
WESTHAMPTON    CLOUDY    38  36  92 SW3       29.88F FOG
MONTAUK POINT    N/A     40  35  83 SW6       29.87F
$$

NYZ052-065-067-050200-
HUDSON VALLEY

CITY           SKY/WX    TMP DP  RH WIND       PRES   REMARKS
WHITE PLAINS   CLOUDY    39  37  92 VRB3      29.85F FOG
NEWBURGH       CLOUDY    36  34  93 CALM      29.87R
MONTGOMERY     CLOUDY    36  33  89 SW3       29.85R
POUGHKEEPSIE   CLOUDY    37  31  78 CALM      29.87R
ALBANY         CLOUDY    36  25  64 N7        29.90R WCI  30
$$

NJZ001-105-106-008-010-013-015-019>022-104-050200-
NEW JERSEY

CITY           SKY/WX    TMP DP  RH WIND       PRES   REMARKS
NEWARK/LIBERTY CLOUDY    41  39  93 SW9       29.88F FOG
TETERBORO      CLOUDY    41  37  86 SW6       29.87F FOG
CALDWELL       CLOUDY    40  37  89 SW3       29.87F FOG
MORRISTOWN     LGT RAIN  41  39  93 W5        29.88F FOG
SOMERVILLE     CLOUDY    41  39  93 CALM      29.87S FOG
SUSSEX         CLOUDY    35  33  92 CALM      29.87R
ANDOVER          N/A     36  35  96 CALM      29.87S
TRENTON        LGT RAIN  41  39  93 W5        29.89S FOG
MILLVILLE      LGT RAIN  42  32  67 CALM      29.88S VSB 1/2
ATLANTIC CITY  FOG       43  43 100 SE5       29.88F VSB 1/2
WRIGHTSTOWN    LGT RAIN  40  40  99 W3        29.87S FOG
TOMS RIVER     CLOUDY    43  39  87 CALM      29.89F VSB 1/4
BELMAR         CLOUDY    43  37  81 CALM      29.87F VSB 1/2
$$

PAZ047>061-062-071-050200-
EASTERN PENNSYLVANIA

CITY           SKY/WX    TMP DP  RH WIND       PRES   REMARKS
PHILADELPHIA   LGT RAIN  41  40  96 CALM      29.91R FOG
ALLENTOWN      CLOUDY    39  35  86 W5        29.89R FOG
SCRANTON       CLOUDY    38  32  79 SW6       29.87R WCI  33
$$

CTZ002-004>006-009-010-012-RIZ004-006-007-MAZ004-011-015-050200-
SOUTHERN NEW ENGLAND
 IN CT

CITY           SKY/WX    TMP DP  RH WIND       PRES   REMARKS
BRADLEY INTL   CLOUDY    39  32  76 S5        29.82F
HARTFORD       CLOUDY    41  31  67 SW8       29.84F
DANBURY        CLOUDY    34  30  85 CALM      29.85F FOG
WTRBRY/OXFORD  CLOUDY    37  28  70 W5        29.84F WCI  34
BRIDGEPORT     CLOUDY    36  35  96 W3        29.86F FOG
MERIDEN        CLOUDY    38  32  79 S7        29.85F WCI  33
NEW HAVEN      CLOUDY    38  35  89 SW5       29.85F FOG     WCI  34
CHESTER        CLOUDY    39  36  87 SW5       29.84F
GROTON         CLOUDY    35  34  96 SW7       29.85F FOG     WCI  29
WILLIMANTIC    CLOUDY    36  32  85 CALM      29.83F

 IN RI

CITY           SKY/WX    TMP DP  RH WIND       PRES   REMARKS
PROVIDENCE     CLOUDY    37  33  85 S6        29.83F WCI  32
BLOCK ISLAND   CLOUDY    37  34  87 SW10      29.84F WCI  30
WESTERLY       CLOUDY    36  34  92 SW6       29.85F FOG     WCI  31

 IN MA

CITY           SKY/WX    TMP DP  RH WIND       PRES   REMARKS
BOSTON         CLOUDY    39  30  70 SW10      29.82F WCI  32
WORCESTER      CLOUDY    35  28  75 SW9       29.77F WCI  28
WESTFIELD      CLOUDY    37  29  72 CALM      29.83F
PROVINCETOWN   CLOUDY    36  34  93 SW12      29.84F WCI  27
NANTUCKET      LGT RAIN  37  35  92 W14       29.87F FOG     WCI  28
$$

ANZ330-335-338-340-345-350-353-355-050200-
COASTAL MARINE OBSERVATIONS


STATION/POSITION TIME  SKY/WX   TEMP    WIND        PRES    VSBY  WAVE
                                AIR SEA DIR/SP/G                  HT/PER
                 (UTC)          (F)     (DEG/KT/KT) (MB)    (MI)  (FT/S)
NY HARB ENTRANCE 0100            39 38  220/  8/  8 1011.6          4/ 9
4S FIRE IS       0100               33                N/A           6/ 9
20S FIRE ISLAND  0000               36              1013.0          6/ 8
23SW MTP         0100                                 N/A           8/10
HUDSON CANYON    NOT AVBL
EXECUTION ROCKS  NOT AVBL
WESTERN LI SOUND NOT AVBL
CENTRAL LI SOUND NOT AVBL
EASTERN LI SOUND NOT AVBL
ROBBINS REEF     0100            42     240/  9/ 10 1010.5
$$


>>>>>>>>>>>>>>>>>>>>>>>>>>>> KEY <<<<<<<<<<<<<<<<<<<<<<<<<<<
>                                                          <
>     SKY/WX - SKY CONDITION/PRESENT WEATHER               <
>     TMP    - TEMPERATURE IN FAHRENHEIT                   <
>     DP     - DEWPOINT IN FAHRENHEIT                      <
>     RH     - RELATIVE HUMIDITY IN PERCENT                <
>     WIND   - DIRECTION AND SPEED IN MPH                  <
>     PRES   - MEAN SEA LEVEL PRESSURE IN INCHES OF HG     <
>     WCI    - WIND CHILL INDEX                            <
>     VSB    - VISIBILITY IN MILES                         <
>     HX     - HEAT INDEX                                  <
>     TC     - TEMPERATURE IN CELSIUS                      <
>     VRB    - VARIABLE WIND DIRECTION                     <
>                                                          <
>>>>>>>>>>>>>>>>>>>>>>>>>>>> KEY <<<<<<<<<<<<<<<<<<<<<<<<<<<





USA.gov is the U.S. government's official web portal to all federal, state and local government web resources and services.